[[{"header":{"parameterUnit":"m.s-1","parameterCategory":1,"la1":30.2991,"la2":30.254,"lo1":-89.0895,"lo2":-89.0444,"dy":0.0017,"dx":0.0017,"nx":28,"ny":28,"refTime":"2024-03-06T09:00:00:Z","depth":0,"parameterNumber":2,"parameterNumberName":"U-component_of_WINDS"},"data":[0,0,0,0,0,0,0,0,0,0,0,0,0,0,0,0,0,0,0,0,0,0,0,0,0,0,0,0,0,0,0,0,0,0,0,0,0,0,0,0,0,0,0,0,0,0,0,0,0,0,0,0,0,0,0,0,0,0,-3.3985,-3.3985,0,-3.4011,-3.4011,-3.4011,-3.3957,-3.3955,-3.3953,-3.3951,-3.3977,-3.3979,-3.3982,0,0,0,0,0,0,0,0,0,0,0,0,0,-3.3889,-3.3892,-3.3985,-3.3985,-3.3986,-3.4011,-3.4011,-3.4011,-3.3957,-3.3955,-3.3953,-3.3951,-3.3976,-3.3979,-3.3982,0,0,0,0,0,0,0,0,0,0,0,0,0,-3.3925,-3.3892,-3.3985,-3.3962,-3.396,-3.401,-3.4011,-3.4011,-3.3957,-3.3955,-3.3952,-3.395,-3.3975,-3.3979,-3.3982,-3.4057,0,0,-3.3993,-3.3995,0,0,0,0,0,0,0,0,-3.3923,-3.3928,-3.3965,-3.3963,-3.3961,-3.3978,-3.3987,-3.4027,-3.3958,-3.3958,-3.3951,-3.3948,-3.3979,-3.3982,-3.3993,-3.4058,-3.4059,-3.3993,-3.3995,-3.3997,-3.3998,0,0,0,0,0,0,0,-3.392,-3.3927,-3.3995,-3.3965,-3.3963,-3.395,-3.3952,-3.3994,-3.3983,-3.3958,-3.3954,-3.3958,-3.3978,-3.399,-3.3993,-3.4059,-3.3993,-3.3996,-3.3998,-3.4,-3.4187,-3.419,0,0,0,0,0,0,-3.3921,-3.3925,-3.3994,-3.3996,-3.3935,-3.3954,-3.3956,-3.3975,-3.3983,-3.3981,-3.396,-3.3955,-3.3985,-3.3989,-3.3994,-3.4081,-3.3997,-3.4,-3.4002,-3.4184,-3.4187,-3.4191,0,0,0,0,0,0,-3.3919,-3.3928,-3.3993,-3.3959,-3.3967,-3.3958,-3.398,-3.3977,-3.3989,-3.3984,-3.3982,-3.3974,-3.3983,-3.3989,-3.4042,-3.4081,-3.4002,-3.4005,-3.4181,-3.4185,-3.4189,-3.4256,0,0,0,0,0,0,-3.3917,-3.3927,-3.3955,-3.3961,-3.3969,-3.4041,-3.3983,-3.3979,-3.3995,-3.3989,-3.3997,-3.3996,-3.3982,-3.4037,-3.4045,-3.4085,-3.4008,-3.4177,-3.4183,-3.4188,-3.425,-3.4262,-3.4273,0,0,0,0,0,-3.3913,-3.3973,-3.3957,-3.3966,-3.4004,-3.4043,-3.4048,-3.403,-3.3998,-3.4026,-3.4024,-3.3995,-3.4076,-3.4043,-3.4052,-3.4093,-3.4174,-3.4181,-3.4187,-3.4245,-3.426,-3.4272,0,0,0,0,0,0,-3.3972,-3.3973,-3.3955,-3.4019,-3.4031,-3.4034,-3.4068,-3.4046,-3.4068,-3.4061,-3.4039,-3.4041,-3.4098,-3.4101,-3.4064,-3.4165,-3.412,-3.4128,-3.4161,-3.4175,-3.4186,-3.4183,-3.4011,0,0,0,0,0,-3.3993,-3.4025,-3.4024,-3.408,-3.4087,-3.4077,-3.4093,-3.4079,-3.4091,-3.4096,-3.4097,-3.411,-3.4138,-3.4157,-3.4182,-3.4251,-3.4252,-3.4284,-3.4295,-3.4304,-3.4311,-3.4348,-3.4362,-3.4212,-3.4212,-3.4212,0,0,-3.4035,-3.404,-3.4061,-3.4092,-3.41,-3.4133,-3.4082,-3.4119,-3.4143,-3.4102,-3.4151,-3.4153,-3.4165,-3.4226,-3.4253,-3.423,-3.4353,-3.4313,-3.432,-3.4322,-3.4356,-3.437,-3.4383,-3.4216,-3.4215,-3.4215,0,0,-3.4129,-3.4136,-3.4183,-3.4192,-3.4205,-3.4198,-3.421,-3.4216,-3.4216,-3.4265,-3.4235,-3.4264,-3.4313,-3.4323,-3.4334,-3.4434,-3.4408,-3.4443,-3.45,-3.4536,-3.4548,-3.4558,-3.4592,-3.4605,-3.4451,-3.4451,-3.4451,0,-3.4179,-3.4228,-3.421,-3.4249,-3.4264,-3.4229,-3.4276,-3.4286,-3.4307,-3.4318,-3.4292,-3.4353,-3.4359,-3.4422,-3.4446,-3.4457,-3.4469,-3.4441,-3.4547,-3.4558,-3.4567,-3.46,-3.4613,-3.4455,-3.4454,-3.4454,-3.4454,0,-3.429,-3.4324,-3.4361,-3.4382,-3.4401,-3.4444,-3.4433,-3.4454,-3.4439,-3.4435,-3.4486,-3.4492,-3.4518,-3.4533,-3.4518,-3.4594,-3.4579,-3.4551,-3.4504,-3.4586,-3.4616,-3.4628,-3.4461,-3.4459,-3.4458,-3.4457,0,0,-3.4419,-3.4431,-3.4444,-3.4453,-3.4466,-3.4492,-3.4535,-3.4561,-3.4579,-3.4595,-3.463,-3.4673,-3.4647,-3.466,-3.4647,-3.4679,-3.4756,-3.4646,-3.4646,-3.4666,-3.4839,-3.4859,-3.4874,-3.474,-3.4742,-3.4744,-3.4838,0,-3.4511,-3.4583,-3.4569,-3.4639,-3.4671,-3.4639,-3.4675,-3.4687,-3.4685,-3.4712,-3.4709,-3.474,-3.4704,-3.4712,-3.4742,-3.474,-3.479,-3.4734,-3.4771,-3.4773,-3.4767,-3.489,-3.4911,-3.4998,-3.4849,-3.4851,-3.4853,0,-3.4627,-3.4648,-3.4722,-3.473,-3.4743,-3.4776,-3.4799,-3.4825,-3.4838,-3.4834,-3.485,-3.4831,-3.4873,-3.4827,-3.4885,-3.4846,-3.4861,-3.4863,-3.4866,-3.4867,-3.4816,-3.4893,-3.5026,-3.5039,-3.4872,-3.487,-3.4869,0,-3.4713,-3.476,-3.481,-3.4819,-3.483,-3.4854,-3.4859,-3.487,-3.4887,-3.4907,-3.4917,-3.4943,-3.4956,-3.4976,-3.4964,-3.4932,-3.5024,-3.4977,-3.5021,-3.5021,-3.504,-3.5039,-3.5176,-3.5052,-3.5052,-3.5052,-3.5052,0,-3.4816,-3.4862,-3.4848,-3.4879,-3.493,-3.4914,-3.4965,-3.4966,-3.4976,-3.5007,-3.4981,-3.501,-3.4994,-3.5022,-3.5013,-3.5061,-3.5068,-3.5066,-3.5063,-3.5067,-3.5067,-3.5075,-3.5068,-3.5055,-3.5055,-3.5054,-3.5053,0,-3.492,-3.4912,-3.4965,-3.4971,-3.4974,-3.5011,-3.5016,-3.5045,-3.5042,-3.5081,-3.5089,-3.5084,-3.5115,-3.5106,-3.514,-3.5135,-3.5196,-3.5185,-3.5191,-3.5188,-3.5232,-3.5227,-3.5377,-3.5396,-3.5262,-3.5264,-3.5265,0,-3.4985,-3.502,-3.503,-3.5049,-3.5057,-3.5087,-3.5104,-3.509,-3.5109,-3.5127,-3.5153,-3.5183,-3.5206,-3.5258,-3.5257,-3.5283,-3.5273,-3.5324,-3.5276,-3.528,-3.5272,-3.527,-3.5273,-3.5332,-3.5334,-3.5335,-3.5336,0,-3.5102,-3.5097,-3.5122,-3.5147,-3.5169,-3.5188,-3.5204,-3.5221,-3.5208,-3.523,-3.5263,-3.5281,-3.5316,-3.5345,-3.537,-3.5375,-3.5354,-3.5352,-3.5363,-3.5367,-3.5368,-3.5367,-3.5215,-3.5348,-3.5346,-3.5346,-3.5345,-3.5345,-3.5187,-3.5217,-3.5229,-3.5258,-3.527,-3.5286,-3.5313,-3.5314,-3.534,-3.5368,-3.5358,-3.5395,-3.5408,-3.5438,-3.5447,-3.5476,-3.5456,-3.5473,-3.5477,-3.5481,-3.5486,-3.5365,-3.548,-3.548,-3.548,-3.5479,-3.5479,0,-3.5302,-3.5308,-3.5336,-3.536,-3.5383,-3.5362,-3.5379,-3.54,-3.5433,-3.5447,-3.547,-3.5508,-3.5537,-3.5539,-3.5566,-3.5588,-3.5579,-3.5596,-3.5593,-3.5595,-3.5502,-3.5489,-3.5603,-3.5603,-3.5603,-3.5603,-3.5603,-3.5603,-3.5364,-3.5412,-3.5409,-3.5463,-3.5469,-3.5505,-3.5517,-3.5532,-3.5543,-3.5586,-3.561,-3.5611,-3.562,-3.5648,-3.5674,-3.5674,-3.5684,-3.5705,-3.5701,-3.5614,-3.5601,-3.559,-3.5577,-3.5707,-3.5707,-3.579,-3.5791,-3.5792]},{"header":{"parameterUnit":"m.s-1","parameterCategory":1,"la1":30.2991,"la2":30.254,"lo1":-89.0895,"lo2":-89.0444,"dy":0.0017,"dx":0.0017,"nx":28,"ny":28,"refTime":"2024-03-06T09:00:00:Z","depth":0,"parameterNumber":3,"parameterNumberName":"V-component_of_WINDS"},"data":[0,0,0,0,0,0,0,0,0,0,0,0,0,0,0,0,0,0,0,0,0,0,0,0,0,0,0,0,0,0,0,0,0,0,0,0,0,0,0,0,0,0,0,0,0,0,0,0,0,0,0,0,0,0,0,0,0,0,2.6866,2.6866,0,2.6937,2.6937,2.6938,2.6933,2.6932,2.6931,2.693,2.6998,2.7001,2.7004,0,0,0,0,0,0,0,0,0,0,0,0,0,2.6724,2.6726,2.6866,2.6867,2.6867,2.6936,2.6937,2.6938,2.6933,2.6932,2.6931,2.693,2.6997,2.7001,2.7004,0,0,0,0,0,0,0,0,0,0,0,0,0,2.6789,2.6727,2.6865,2.6873,2.6875,2.6936,2.6937,2.6939,2.6934,2.6932,2.693,2.6929,2.6996,2.7,2.7004,2.7061,0,0,2.7017,2.7019,0,0,0,0,0,0,0,0,2.6785,2.6794,2.6871,2.6873,2.6875,2.6925,2.6912,2.698,2.6934,2.6911,2.693,2.6928,2.6975,2.6981,2.6997,2.7064,2.7067,2.7018,2.702,2.7022,2.7023,0,0,0,0,0,0,0,2.6781,2.6791,2.6893,2.6872,2.6874,2.6873,2.688,2.6925,2.6951,2.6913,2.6913,2.6922,2.6975,2.6993,2.6999,2.7068,2.7017,2.7021,2.7024,2.7025,2.7188,2.719,0,0,0,0,0,0,2.6775,2.6787,2.6891,2.6896,2.6825,2.6876,2.6885,2.691,2.695,2.6955,2.6923,2.6921,2.6987,2.6994,2.7001,2.7072,2.7022,2.7026,2.7028,2.7186,2.7189,2.7191,0,0,0,0,0,0,2.6772,2.6784,2.6888,2.6842,2.6855,2.6881,2.6909,2.6912,2.693,2.6958,2.6962,2.6937,2.6986,2.6995,2.7047,2.7074,2.7028,2.7031,2.7184,2.7187,2.719,2.7213,0,0,0,0,0,0,2.6768,2.6783,2.6805,2.6842,2.6857,2.6934,2.691,2.6915,2.6938,2.6936,2.6972,2.6976,2.6985,2.7041,2.7051,2.7079,2.7035,2.7182,2.7186,2.7189,2.721,2.7216,2.7222,0,0,0,0,0,2.6763,2.6808,2.6806,2.6819,2.6886,2.6936,2.6944,2.6955,2.694,2.6963,2.6981,2.6975,2.707,2.7046,2.7058,2.7087,2.718,2.7185,2.7189,2.7208,2.7215,2.7222,0,0,0,0,0,0,2.6771,2.6812,2.6812,2.687,2.69,2.6935,2.6963,2.6963,2.6996,2.6993,2.7004,2.7012,2.7065,2.7081,2.7055,2.7146,2.7123,2.7129,2.7133,2.7141,2.7147,2.7142,2.7038,0,0,0,0,0,2.678,2.6819,2.6852,2.69,2.6916,2.6937,2.6959,2.6966,2.6996,2.7008,2.703,2.7059,2.7095,2.7119,2.7153,2.7212,2.7221,2.7239,2.7244,2.7249,2.7255,2.7289,2.7298,2.7204,2.7204,2.7204,0,0,2.6798,2.6826,2.6849,2.6903,2.6927,2.6966,2.6947,2.6989,2.7018,2.7014,2.7065,2.7082,2.7115,2.7172,2.7197,2.7187,2.7283,2.7254,2.7258,2.7261,2.7294,2.7303,2.7311,2.7207,2.7206,2.7206,0,0,2.6852,2.6876,2.6921,2.6946,2.6983,2.6997,2.7008,2.7044,2.7056,2.7108,2.7107,2.714,2.7202,2.7227,2.7247,2.7313,2.731,2.7324,2.7354,2.7388,2.7395,2.7402,2.7427,2.7435,2.7329,2.733,2.733,0,2.687,2.693,2.6943,2.6986,2.701,2.7011,2.7055,2.7078,2.7124,2.7141,2.7128,2.7208,2.723,2.7293,2.731,2.7326,2.7338,2.732,2.7393,2.74,2.7406,2.743,2.7439,2.7331,2.7331,2.7331,2.7331,0,2.6951,2.6992,2.7023,2.7071,2.7098,2.7141,2.7161,2.7187,2.7191,2.7207,2.7261,2.7288,2.7329,2.7345,2.7348,2.7409,2.7401,2.7391,2.7368,2.7417,2.7439,2.7449,2.7333,2.7333,2.7332,2.7332,0,0,2.701,2.7067,2.7078,2.71,2.7142,2.7174,2.7218,2.7261,2.7284,2.7315,2.7353,2.7407,2.7399,2.7422,2.7428,2.7457,2.751,2.7444,2.7445,2.7456,2.758,2.7588,2.7599,2.7508,2.751,2.7511,2.7578,0,2.707,2.715,2.7164,2.7233,2.7272,2.7274,2.7313,2.7342,2.7359,2.7394,2.7411,2.745,2.7435,2.745,2.7478,2.7497,2.7535,2.7493,2.7543,2.7544,2.7535,2.761,2.7619,2.7681,2.7587,2.7588,2.7589,0,2.7149,2.7186,2.726,2.73,2.7316,2.7351,2.7392,2.7426,2.746,2.747,2.7497,2.7501,2.7546,2.7522,2.7585,2.7556,2.7577,2.759,2.7592,2.7598,2.757,2.7619,2.77,2.771,2.7603,2.7602,2.7601,0,2.7187,2.7255,2.7309,2.7328,2.7375,2.7399,2.7419,2.7452,2.7478,2.7513,2.753,2.7569,2.7591,2.7622,2.7636,2.7617,2.7699,2.7675,2.7708,2.7708,2.7726,2.7725,2.7813,2.7738,2.7738,2.7738,2.7738,0,2.7252,2.7298,2.7328,2.7361,2.7412,2.7428,2.7478,2.7497,2.7527,2.7563,2.7567,2.7601,2.7617,2.7654,2.7665,2.7717,2.7726,2.7735,2.7738,2.7736,2.7735,2.775,2.7746,2.774,2.774,2.7739,2.7739,0,2.7304,2.7325,2.7385,2.7425,2.7436,2.7472,2.7507,2.7539,2.7556,2.7602,2.7614,2.764,2.7683,2.7701,2.7753,2.7761,2.7821,2.7819,2.781,2.7811,2.7844,2.7841,2.7946,2.7961,2.7875,2.7876,2.7876,0,2.7344,2.738,2.7425,2.7451,2.7473,2.7514,2.7541,2.7558,2.7586,2.7629,2.7656,2.77,2.7736,2.7805,2.7828,2.7869,2.7869,2.7903,2.7875,2.7872,2.7871,2.7869,2.7874,2.7908,2.7909,2.791,2.791,0,2.7415,2.7425,2.7464,2.7508,2.7541,2.7576,2.761,2.763,2.7652,2.7683,2.7729,2.7758,2.7813,2.7857,2.7899,2.7919,2.7919,2.7919,2.7929,2.7928,2.7922,2.7927,2.7825,2.7917,2.7916,2.7915,2.7915,2.7915,2.7463,2.7496,2.7534,2.7578,2.7606,2.7638,2.7672,2.7694,2.7733,2.7781,2.7788,2.7837,2.7871,2.7929,2.7951,2.7989,2.798,2.7994,2.7998,2.8002,2.8005,2.7915,2.7996,2.7996,2.7996,2.7996,2.7996,0,2.7535,2.756,2.7601,2.765,2.7685,2.7684,2.7722,2.7751,2.7795,2.7828,2.7865,2.7918,2.7962,2.7989,2.8032,2.8058,2.8059,2.8069,2.8067,2.8072,2.8009,2.7997,2.8067,2.8067,2.8067,2.8067,2.8067,2.8067,2.7576,2.7633,2.7647,2.7717,2.7741,2.7792,2.7814,2.7844,2.7871,2.7931,2.7968,2.7986,2.8017,2.8063,2.8103,2.8109,2.8126,2.8136,2.8143,2.8084,2.8076,2.8069,2.8058,2.814,2.814,2.8202,2.8203,2.8203]}]]